Flag for Greece Weather past 2 weeks in Santorini, Greece

Now
54 °F

Light rain. Overcast.


Feels Like: 54 °F
Forecast: 57 / 60 °F
Wind: 1 mph from North

Location: Santorini Island

Current Time: Jan 27, 2015 at 1:37:43 AM

Latest Report: Jan 27, 2015 at 12:50 AM


Visibility: N/A

Pressure: 30.04 "Hg

Humidity: 94%

Dew point: 52 °F

Location of SantoriniLocation

Historic Weather in Santorini — Graph

°F

Santorini temperature yesterday

Maximum temperature yesterday: 63 °F (at 1:50 PM)
Minimum temperature yesterday: 52 °F (at 11:50 PM)
Average temperature yesterday: 57 °F

Past Weeks' High & Low Weather Summary

 TemperatureHumidityPressure
High64 °F (Jan 12, 10:50 AM)100% (Jan 22, 4:50 AM)30.36 "Hg (Jan 22, 4:50 AM)
Low46 °F (Jan 17, 10:20 PM)45% (Jan 16, 3:20 PM)29.77 "Hg (Jan 23, 5:50 PM)
Average58 °F74%30.04 "Hg
* Reported Jan 12 12:20 AM — Jan 27 12:20 AM, Santorini, Weather by CustomWeather, © 2014

Note: Actual official high and low records may vary slightly from our data, if they occured in-between our weather recording intervals... More about our weather records

Advertising

Santorini weather history for previous 24 hours

 ConditionsComfort  
Time TempWeatherWind HumidityBarometerVisibility
12:20 AM
Jan 27
52 °FCool.1 mph94%30.04 "HgN/A
11:50 PM
Jan 26
52 °FCool.1 mph94%30.07 "HgN/A
11:20 PM54 °FRain. Overcast.9 mph88%30.07 "HgN/A
10:50 PM54 °FLight rain. Overcast.9 mph82%30.04 "HgN/A
10:20 PM55 °FLight rain. Overcast.6 mph88%30.07 "HgN/A
9:50 PM55 °FCool.3 mph82%30.07 "HgN/A
9:20 PM55 °FCool.3 mph82%30.07 "HgN/A
8:50 PM55 °FCool.5 mph82%30.07 "HgN/A
7:50 PM54 °FPassing clouds.6 mph88%30.07 "HgN/A
6:50 PM54 °FPassing clouds.6 mph82%30.07 "HgN/A
6:20 PM54 °FPassing clouds.3 mph82%30.04 "HgN/A
5:50 PM55 °FPassing clouds.3 mph77%30.04 "HgN/A
5:20 PM57 °FScattered clouds.5 mph72%30.04 "HgN/A
4:50 PM61 °FScattered clouds.7 mph63%30.04 "HgN/A
4:20 PM61 °FScattered clouds.6 mph68%30.04 "HgN/A
3:50 PM61 °FScattered clouds.9 mph68%30.04 "HgN/A
2:50 PM61 °FScattered clouds.9 mph63%30.04 "HgN/A
2:20 PM61 °FScattered clouds.9 mph63%30.04 "HgN/A
1:50 PM63 °FScattered clouds.9 mph59%30.04 "HgN/A
1:20 PM61 °FScattered clouds.7 mph63%30.04 "HgN/A
12:50 PM61 °FScattered clouds.7 mph63%30.04 "HgN/A
12:20 PM61 °FScattered clouds.9 mph63%30.04 "HgN/A
11:50 AM61 °FScattered clouds.9 mph63%30.04 "HgN/A
11:20 AM61 °FScattered clouds.7 mph68%30.07 "HgN/A
10:50 AM61 °FScattered clouds.7 mph68%30.07 "HgN/A
10:20 AM61 °FScattered clouds.8 mph68%30.04 "HgN/A
9:50 AM61 °FScattered clouds.8 mph68%30.04 "HgN/A
9:20 AM61 °FScattered clouds.8 mph68%30.04 "HgN/A
8:50 AM59 °FScattered clouds.6 mph72%30.04 "HgN/A
8:20 AM57 °FScattered clouds.6 mph77%30.01 "HgN/A
7:50 AM55 °FScattered clouds.6 mph82%30.01 "HgN/A
7:20 AM55 °FPassing clouds.7 mph77%30.01 "HgN/A
6:50 AM55 °FPassing clouds.7 mph77%29.98 "HgN/A
6:20 AM55 °FCool.7 mph77%29.98 "HgN/A
5:50 AM55 °FCool.7 mph77%29.98 "HgN/A
5:20 AM55 °FCool.8 mph77%29.95 "HgN/A
4:50 AM57 °FCool.8 mph72%29.95 "HgN/A
4:20 AM57 °FCool.9 mph77%29.95 "HgN/A
3:50 AM55 °FCool.9 mph88%29.95 "HgN/A
3:20 AM55 °FLight rain. Overcast.12 mph82%29.95 "HgN/A
2:50 AM55 °FLight rain. Overcast.13 mph82%29.95 "HgN/A
2:20 AM57 °FLight rain. Overcast.9 mph72%29.95 "HgN/A
1:50 AM57 °FCool.8 mph67%29.92 "HgN/A
1:20 AM57 °FCool.9 mph67%29.92 "HgN/A
Weather by CustomWeather, © 2014

See weather overviewHow to use our weather pages